Location: ???????
(56.2167°N, 38.0500°E)
Time: 12:00:05
(UTC+00:00)

NOSS 2-3 (E) - Pass Details

Date: 19 May 2025
Orbit: 492 x 1706 km, 63.3° (Epoch: 24 April)

Event Time Altitude Azimuth Distance (km) Brightness Sun altitude
Rises 22:58:03 0° 305° (NW) 2,870 7.1 -11.3°
Reaches altitude 10° 23:00:05 10° 308° (NW) 2,070 6.4 -11.2°
Maximum altitude 23:04:45 70° 33° (NNE) 839 4.4 -10.9°
Drops below altitude 10° 23:11:01 10° 117° (ESE) 2,761 6.9 -10.5°
Sets 23:14:04 0° 120° (ESE) 3,915 7.6 -10.4°
